�������l�o���
Date,Time,MP-1(��Sv/h),MP-2(��Sv/h),MP-3(��Sv/h),MP-4(��Sv/h),MP-5(��Sv/h),MP-6(��Sv/h),MP-7(��Sv/h),MP-8(��Sv/h),����,����(m/s),���J
2020/01/11,00:00,0.692,0.992,0.662,1.244,0.872,0.400,0.702,0.667,���쐼,1.9,��
2020/01/11,00:10,0.692,0.992,0.661,1.246,0.872,0.400,0.701,0.668,��,1.6,��
2020/01/11,00:20,0.692,0.991,0.661,1.243,0.871,0.399,0.701,0.668,��,1.8,��
2020/01/11,00:30,0.693,0.993,0.661,1.244,0.873,0.399,0.701,0.667,��,2.3,��
2020/01/11,00:40,0.691,0.992,0.660,1.242,0.872,0.400,0.700,0.669,��,1.8,��
2020/01/11,00:50,0.690,0.993,0.661,1.242,0.873,0.400,0.702,0.668,��,0.9,��
2020/01/11,01:00,0.692,0.997,0.661,1.242,0.870,0.400,0.701,0.669,��,1.3,��
2020/01/11,01:10,0.692,0.992,0.660,1.243,0.872,0.400,0.700,0.668,��,3.2,��
2020/01/11,01:20,0.690,0.992,0.660,1.243,0.874,0.400,0.700,0.665,��,3.2,��
2020/01/11,01:30,0.692,0.993,0.660,1.244,0.872,0.400,0.702,0.666,���k��,2.3,��
2020/01/11,01:40,0.690,0.991,0.662,1.245,0.873,0.399,0.700,0.667,��,1.7,��
2020/01/11,01:50,0.692,0.992,0.660,1.244,0.873,0.399,0.701,0.667,��,1.7,��
2020/01/11,02:00,0.691,0.993,0.661,1.244,0.872,0.400,0.700,0.667,���쐼,0.9,��
2020/01/11,02:10,0.690,0.993,0.659,1.242,0.871,0.398,0.700,0.666,�쐼,1.6,��
2020/01/11,02:20,0.691,0.992,0.660,1.244,0.871,0.400,0.702,0.667,��쐼,1.1,��
2020/01/11,02:30,0.691,0.992,0.660,1.240,0.872,0.400,0.701,0.666,���쐼,2.7,��
2020/01/11,02:40,0.691,0.995,0.660,1.241,0.871,0.398,0.701,0.666,�쐼,3.9,��
2020/01/11,02:50,0.690,0.992,0.660,1.242,0.873,0.399,0.701,0.669,�쐼,3.2,��
2020/01/11,03:00,0.691,0.991,0.658,1.243,0.872,0.399,0.701,0.665,�쐼,2.6,��
2020/01/11,03:10,0.691,0.990,0.660,1.243,0.871,0.399,0.701,0.666,�쐼,3.1,��
2020/01/11,03:20,0.692,0.992,0.660,1.244,0.871,0.398,0.700,0.667,�쐼,3.6,��
2020/01/11,03:30,0.692,0.993,0.660,1.243,0.872,0.399,0.700,0.668,�쐼,3.3,��
2020/01/11,03:40,0.689,0.991,0.661,1.246,0.870,0.399,0.700,0.667,���쐼,3.0,��
2020/01/11,03:50,0.691,0.990,0.660,1.244,0.871,0.398,0.702,0.666,���쐼,4.2,��
2020/01/11,04:00,0.691,0.992,0.660,1.245,0.872,0.399,0.700,0.665,���쐼,5.2,��
2020/01/11,04:10,0.692,0.992,0.660,1.241,0.871,0.401,0.700,0.669,���쐼,3.6,��
2020/01/11,04:20,0.690,0.991,0.661,1.245,0.872,0.401,0.701,0.666,���쐼,3.4,��
2020/01/11,04:30,0.690,0.991,0.661,1.244,0.869,0.401,0.700,0.667,���쐼,4.0,��
2020/01/11,04:40,0.690,0.992,0.661,1.242,0.871,0.402,0.699,0.666,���쐼,3.4,��
2020/01/11,04:50,0.692,0.993,0.660,1.243,0.870,0.398,0.700,0.668,���쐼,3.5,��
2020/01/11,05:00,0.691,0.989,0.660,1.244,0.871,0.400,0.702,0.667,�쐼,3.2,��
2020/01/11,05:10,0.692,0.990,0.660,1.242,0.870,0.399,0.701,0.667,�쐼,2.4,��
2020/01/11,05:20,0.691,0.991,0.659,1.243,0.870,0.400,0.701,0.667,�쐼,2.5,��
2020/01/11,05:30,0.690,0.991,0.660,1.243,0.872,0.398,0.700,0.668,��쐼,2.4,��
2020/01/11,05:40,0.689,0.990,0.660,1.245,0.870,0.400,0.701,0.667,�쐼,2.1,��
2020/01/11,05:50,0.689,0.991,0.659,1.242,0.869,0.400,0.702,0.668,���쐼,2.8,��
2020/01/11,06:00,0.690,0.990,0.658,1.244,0.871,0.398,0.701,0.665,��,3.5,��
2020/01/11,06:10,0.689,0.991,0.660,1.241,0.870,0.401,0.700,0.667,��,3.0,��
2020/01/11,06:20,0.690,0.991,0.660,1.243,0.869,0.400,0.701,0.666,���쐼,1.7,��
2020/01/11,06:30,0.692,0.990,0.660,1.242,0.869,0.402,0.700,0.668,���쐼,2.2,��
2020/01/11,06:40,0.690,0.991,0.660,1.242,0.870,0.400,0.701,0.667,���쐼,2.5,��
2020/01/11,06:50,0.690,0.989,0.659,1.244,0.870,0.400,0.702,0.668,��,1.2,��
2020/01/11,07:00,0.692,0.987,0.660,1.241,0.870,0.400,0.701,0.667,��,1.2,��
2020/01/11,07:10,0.690,0.992,0.659,1.242,0.868,0.400,0.700,0.667,��,1.3,��
2020/01/11,07:20,0.691,0.990,0.660,1.242,0.871,0.400,0.701,0.668,��쐼,1.7,��
2020/01/11,07:30,0.691,0.990,0.660,1.244,0.870,0.399,0.699,0.667,��쐼,2.4,��
2020/01/11,07:40,0.690,0.991,0.658,1.241,0.870,0.399,0.701,0.667,��쐼,3.2,��
2020/01/11,07:50,0.690,0.990,0.659,1.241,0.872,0.399,0.702,0.669,��쐼,2.5,��
2020/01/11,08:00,0.690,0.992,0.661,1.243,0.870,0.400,0.702,0.668,��,2.2,��
2020/01/11,08:10,0.690,0.990,0.661,1.242,0.868,0.400,0.699,0.668,��,3.4,��
2020/01/11,08:20,0.691,0.991,0.660,1.242,0.870,0.400,0.703,0.667,��,2.8,��
2020/01/11,08:30,0.692,0.990,0.659,1.244,0.873,0.400,0.701,0.669,��,1.7,��
2020/01/11,08:40,0.693,0.991,0.662,1.243,0.870,0.400,0.701,0.668,�쐼,1.0,��
2020/01/11,08:50,0.693,0.992,0.660,1.243,0.872,0.401,0.702,0.668,��쐼,1.9,��
2020/01/11,09:00,0.692,0.991,0.660,1.244,0.871,0.400,0.701,0.669,��,1.7,��
2020/01/11,09:10,0.692,0.991,0.660,1.244,0.872,0.401,0.705,0.668,��,0.9,��
2020/01/11,09:20,0.691,0.990,0.660,1.247,0.872,0.401,0.704,0.667,��쐼,0.8,��
2020/01/11,09:30,0.693,0.990,0.660,1.244,0.871,0.400,0.704,0.668,��쐼,1.1,��
2020/01/11,09:40,0.693,0.993,0.659,1.242,0.871,0.399,0.705,0.669,��,1.2,��
2020/01/11,09:50,0.694,0.991,0.660,1.243,0.872,0.401,0.702,0.667,��,0.8,��
2020/01/11,10:00,0.695,0.990,0.662,1.246,0.872,0.403,0.701,0.668,��쓌,1.1,��
2020/01/11,10:10,0.695,0.991,0.661,1.243,0.876,0.401,0.700,0.669,��쓌,1.8,��
2020/01/11,10:20,0.695,0.991,0.661,1.245,0.873,0.402,0.701,0.669,�쓌,1.9,��
2020/01/11,10:30,0.695,0.990,0.661,1.244,0.873,0.402,0.702,0.668,��쓌,2.6,��
2020/01/11,10:40,0.694,0.991,0.661,1.244,0.872,0.402,0.704,0.670,��쓌,4.2,��
2020/01/11,10:50,0.693,0.992,0.661,1.245,0.873,0.402,0.700,0.667,�쓌,4.5,��
2020/01/11,11:00,0.695,0.990,0.660,1.244,0.876,0.402,0.702,0.669,��쓌,4.7,��
2020/01/11,11:10,0.696,0.991,0.661,1.244,0.875,0.402,0.702,0.669,��,5.0,��
2020/01/11,11:20,0.695,0.994,0.663,1.247,0.876,0.402,0.704,0.669,��,3.3,��
2020/01/11,11:30,0.696,0.991,0.664,1.247,0.875,0.402,0.701,0.669,��쓌,5.8,��
2020/01/11,11:40,0.696,0.992,0.662,1.246,0.875,0.402,0.702,0.668,��쓌,5.2,��
2020/01/11,11:50,0.695,0.995,0.664,1.246,0.876,0.402,0.702,0.670,��쓌,6.0,��
2020/01/11,12:00,0.696,0.996,0.663,1.243,0.877,0.403,0.702,0.670,��쓌,5.8,��
2020/01/11,12:10,0.696,0.996,0.662,1.245,0.879,0.402,0.703,0.670,��쓌,5.8,��
2020/01/11,12:20,0.696,0.996,0.663,1.245,0.877,0.402,0.702,0.670,��쓌,6.3,��
2020/01/11,12:30,0.697,0.997,0.663,1.246,0.875,0.404,0.702,0.671,��쓌,5.0,��
2020/01/11,12:40,0.699,0.996,0.664,1.245,0.877,0.404,0.703,0.669,��쓌,6.0,��
2020/01/11,12:50,0.696,0.998,0.664,1.245,0.878,0.404,0.701,0.670,��쐼,4.2,��
2020/01/11,13:00,0.697,0.998,0.664,1.247,0.877,0.403,0.702,0.669,��,6.6,��
2020/01/11,13:10,0.697,0.996,0.664,1.245,0.877,0.403,0.702,0.667,��,8.3,��
2020/01/11,13:20,0.697,0.994,0.663,1.248,0.881,0.403,0.702,0.668,��쓌,8.0,��
2020/01/11,13:30,0.697,0.993,0.662,1.246,0.880,0.404,0.703,0.670,��쓌,9.6,��
2020/01/11,13:40,0.696,0.997,0.663,1.244,0.879,0.403,0.704,0.671,��쓌,9.4,��
2020/01/11,13:50,0.696,0.997,0.664,1.246,0.879,0.405,0.703,0.669,��쓌,8.6,��
2020/01/11,14:00,0.699,0.999,0.665,1.247,0.877,0.405,0.704,0.670,��쓌,10.7,��
2020/01/11,14:10,0.699,0.999,0.664,1.247,0.878,0.403,0.704,0.668,��쓌,10.5,��
2020/01/11,14:20,0.699,1.001,0.665,1.248,0.878,0.405,0.704,0.668,��쓌,9.4,��
2020/01/11,14:30,0.700,0.999,0.665,1.246,0.877,0.406,0.704,0.669,��쓌,8.3,��
2020/01/11,14:40,0.698,1.001,0.665,1.247,0.880,0.405,0.703,0.667,��쓌,7.5,��
2020/01/11,14:50,0.699,1.001,0.666,1.244,0.879,0.407,0.705,0.668,��쓌,5.5,��
2020/01/11,15:00,0.700,1.001,0.665,1.245,0.880,0.406,0.703,0.670,��쐼,5.5,��
2020/01/11,15:10,0.699,1.000,0.666,1.246,0.880,0.406,0.702,0.670,��,4.9,��
2020/01/11,15:20,0.698,1.002,0.664,1.247,0.880,0.406,0.705,0.669,��쐼,3.6,��
2020/01/11,15:30,0.697,1.001,0.664,1.249,0.878,0.405,0.704,0.670,��,3.6,��
2020/01/11,15:40,0.699,1.002,0.665,1.247,0.879,0.405,0.706,0.670,��,5.5,��
2020/01/11,15:50,0.700,1.006,0.666,1.249,0.878,0.408,0.705,0.670,��,7.4,��
2020/01/11,16:00,0.700,1.004,0.665,1.247,0.879,0.408,0.705,0.668,��,8.2,��
2020/01/11,16:10,0.698,1.002,0.665,1.245,0.878,0.406,0.705,0.669,��,7.4,��
2020/01/11,16:20,0.699,1.002,0.666,1.246,0.879,0.407,0.706,0.671,��,8.8,��
2020/01/11,16:30,0.699,1.004,0.667,1.248,0.877,0.406,0.705,0.669,��,8.8,��
2020/01/11,16:40,0.699,1.003,0.664,1.248,0.878,0.405,0.706,0.670,��,7.1,��
2020/01/11,16:50,0.699,1.001,0.665,1.247,0.878,0.405,0.705,0.671,��,7.7,��
2020/01/11,17:00,0.699,1.001,0.664,1.248,0.879,0.407,0.705,0.669,��,7.1,��
2020/01/11,17:10,0.698,1.003,0.666,1.247,0.879,0.404,0.706,0.670,��,7.7,��
2020/01/11,17:20,0.698,1.001,0.665,1.249,0.880,0.406,0.706,0.670,��,6.1,��
2020/01/11,17:30,0.697,1.002,0.665,1.247,0.878,0.406,0.705,0.669,��,4.1,��
2020/01/11,17:40,0.699,1.002,0.662,1.247,0.879,0.408,0.707,0.670,��쐼,4.6,��
2020/01/11,17:50,0.699,1.003,0.665,1.246,0.879,0.408,0.705,0.669,��쐼,3.1,��
2020/01/11,18:00,0.698,1.001,0.665,1.249,0.878,0.406,0.705,0.670,��쐼,2.8,��
2020/01/11,18:10,0.698,1.001,0.665,1.245,0.879,0.406,0.706,0.671,��쐼,2.7,��
2020/01/11,18:20,0.698,1.003,0.667,1.247,0.879,0.405,0.704,0.669,��쐼,3.1,��
2020/01/11,18:30,0.698,1.003,0.665,1.247,0.880,0.405,0.703,0.669,��쐼,3.3,��
2020/01/11,18:40,0.699,1.001,0.665,1.247,0.879,0.405,0.704,0.671,��,2.7,��
2020/01/11,18:50,0.698,1.000,0.665,1.248,0.878,0.406,0.705,0.670,��쐼,4.1,��
2020/01/11,19:00,0.697,1.001,0.665,1.248,0.879,0.405,0.707,0.668,�쐼,2.3,��
2020/01/11,19:10,0.698,1.003,0.665,1.247,0.878,0.405,0.704,0.669,�쐼,1.7,��
2020/01/11,19:20,0.699,0.999,0.665,1.247,0.879,0.406,0.705,0.671,�쐼,1.5,��
2020/01/11,19:30,0.699,1.000,0.665,1.247,0.880,0.405,0.706,0.671,���쐼,1.9,��
2020/01/11,19:40,0.699,1.002,0.666,1.248,0.879,0.405,0.705,0.670,��,3.8,��
2020/01/11,19:50,0.698,1.001,0.665,1.248,0.878,0.405,0.707,0.670,���쐼,2.8,��
2020/01/11,20:00,0.699,1.000,0.664,1.246,0.880,0.404,0.705,0.670,���쐼,2.3,��
2020/01/11,20:10,0.697,1.000,0.665,1.246,0.878,0.403,0.706,0.670,�쐼,1.3,��
2020/01/11,20:20,0.698,1.001,0.664,1.247,0.879,0.404,0.704,0.670,�쐼,1.5,��
2020/01/11,20:30,0.696,1.000,0.664,1.247,0.878,0.405,0.705,0.669,�쐼,1.3,��
2020/01/11,20:40,0.698,1.000,0.666,1.248,0.880,0.403,0.706,0.670,���쐼,2.9,��
2020/01/11,20:50,0.697,0.998,0.665,1.248,0.880,0.404,0.705,0.670,��,4.5,��
2020/01/11,21:00,0.698,1.000,0.665,1.249,0.879,0.403,0.705,0.670,���쐼,5.2,��
2020/01/11,21:10,0.699,1.000,0.664,1.248,0.881,0.403,0.704,0.670,���쐼,7.5,��
2020/01/11,21:20,0.699,1.001,0.664,1.247,0.879,0.404,0.704,0.669,���쐼,7.5,��
2020/01/11,21:30,0.697,1.002,0.665,1.249,0.879,0.404,0.706,0.670,��,8.0,��
2020/01/11,21:40,0.697,0.999,0.663,1.248,0.881,0.404,0.706,0.670,���쐼,8.2,��
2020/01/11,21:50,0.699,1.000,0.666,1.249,0.879,0.403,0.704,0.669,���쐼,6.9,��
2020/01/11,22:00,0.697,1.001,0.663,1.247,0.879,0.404,0.706,0.669,���쐼,5.8,��
2020/01/11,22:10,0.697,0.999,0.666,1.247,0.879,0.402,0.705,0.669,���쐼,6.6,��
2020/01/11,22:20,0.697,0.999,0.666,1.249,0.879,0.403,0.705,0.671,��,6.9,��
2020/01/11,22:30,0.696,1.000,0.667,1.249,0.879,0.405,0.706,0.669,��,7.1,��
2020/01/11,22:40,0.697,0.998,0.665,1.248,0.878,0.404,0.707,0.669,��,7.2,��
2020/01/11,22:50,0.699,1.000,0.665,1.248,0.877,0.403,0.705,0.670,��,6.3,��
2020/01/11,23:00,0.699,0.999,0.665,1.249,0.880,0.403,0.705,0.667,��,6.9,��
2020/01/11,23:10,0.698,1.001,0.665,1.249,0.879,0.404,0.706,0.670,��,7.1,��
2020/01/11,23:20,0.698,0.998,0.663,1.249,0.880,0.404,0.705,0.670,��,7.4,��
2020/01/11,23:30,0.697,1.001,0.665,1.249,0.879,0.405,0.706,0.670,��,7.7,��
2020/01/11,23:40,0.696,1.000,0.666,1.246,0.879,0.404,0.706,0.669,��,7.7,��
2020/01/11,23:50,0.695,0.998,0.665,1.249,0.879,0.402,0.706,0.669,��,8.8,��
